This demonstration page uses our WeatherBlox Daily Observations layout. Learn more.

40.92945, -100.16068

Hourly Observations for October 2, 2019

Temp ( °F °C ) Dew Point ( °F °C ) Humidity (%) Winds ( mph kmh ) Pressure ( in mb ) Visibility ( mi km ) Precip ( " mm )
12:15 am 00:15 Cloudy 46 8 46 7.5 97 97 NNE 14 22 30.04 1017 10 16.0934 0 0
12:35 am 00:35 Cloudy 46 8 46 7.6 97 97 NNE 13 20 30.03 1017 10 16.0934 0 0
12:55 am 00:55 Cloudy 46 8 46 7.6 97 97 NNE 9 15 30.02 1017 10 16.0934 0 0
1:15 am 01:15 Cloudy 46 8 46 7.8 99 99 N 10 17 30.02 1017 10 16.0934 0 0
1:35 am 01:35 Cloudy with Mist and Fog 46 8 46 8 100 100 NNE 8 13 30.03 1017 4 6.43736 0 0
1:55 am 01:55 Cloudy 47 8.3 47 8.2 99 99 NNE 8 13 30.02 1016 10 16.0934 0 0
2:15 am 02:15 Cloudy 47 8.5 47 8.1 97 97 NE 9 15 30.03 1017 10 16.0934 0 0
2:35 am 02:35 Cloudy 47 8.5 47 8.1 97 97 NE 13 20 30.01 1016 10 16.0934 0 0
2:55 am 02:55 Cloudy 47 8.5 46 8 97 97 ENE 9 15 30.03 1017 10 16.0934 0 0
3:15 am 03:15 Cloudy 47 8.5 46 8 97 97 NE 8 13 30.02 1016 10 16.0934 0 0
3:35 am 03:35 Cloudy 47 8.2 47 8.1 99 99 NE 9 15 30.02 1017 7 11.26538 0 0
3:55 am 03:55 Cloudy with Mist and Fog 46 8 46 8 100 100 ENE 9 15 30.01 1016 3 4.82802 0 0
4:15 am 04:15 Cloudy 46 8 46 8 100 100 NNE 10 17 30.01 1016 7 11.26538 0 0
4:35 am 04:35 Cloudy 47 8.1 46 8 99 99 NNE 8 13 30.02 1017 7 11.26538 0 0
4:55 am 04:55 Cloudy with Nearby Thunderstorms 46 8 46 8 100 100 N 6 9 30.04 1017 7 11.26538 0 0
5:15 am 05:15 Cloudy with Mist and Fog 46 8 46 8 100 100 N 8 13 30.04 1017 2 3.21868 0 0
5:35 am 05:35 Cloudy with Drizzle 46 7.8 46 7.8 100 100 N 9 15 30.04 1017 2.5 4.02335 0 0
5:55 am 05:55 Cloudy with Drizzle 46 7.8 46 7.8 100 100 NNE 8 13 30.04 1017 2.5 4.02335 0 0
6:15 am 06:15 Cloudy with Light Drizzle 46 7.7 46 7.7 100 100 NNE 9 15 30.01 1016 4 6.43736 0 0
6:35 am 06:35 Cloudy with Mist and Fog 46 7.8 46 7.8 100 100 N 6 9 30.04 1017 4 6.43736 0 0
6:55 am 06:55 Cloudy with Mist and Fog 46 7.9 46 7.7 99 99 NNE 7 11 30.05 1018 4 6.43736 0 0
7:15 am 07:15 Cloudy with Mist and Fog 46 7.8 46 7.7 99 99 NNE 6 9 30.05 1018 4 6.43736 0 0
7:35 am 07:35 Cloudy with Mist and Fog 46 7.8 46 7.8 100 100 NNE 6 9 30.03 1017 5 8.0467 0 0
7:55 am 07:55 Cloudy with Mist and Fog 46 7.8 46 7.8 100 100 NNE 8 13 30.03 1017 3 4.82802 0.01 0.254
8:15 am 08:15 Cloudy with Mist and Fog 46 7.7 46 7.6 99 99 NNE 10 17 30.02 1017 5 8.0467 0 0
8:35 am 08:35 Cloudy 46 7.7 46 7.5 99 99 N 8 13 30.04 1017 10 16.0934 0 0
8:55 am 08:55 Cloudy with Mist and Fog 46 7.7 46 7.5 99 99 N 9 15 30.04 1017 4 6.43736 0 0
9:15 am 09:15 Cloudy with Mist and Fog 46 8 46 7.7 98 98 N 8 13 30.04 1017 2.5 4.02335 0 0
9:35 am 09:35 Cloudy with Mist and Fog 46 8 46 7.6 97 97 N 10 17 30.05 1018 2 3.21868 0 0
9:55 am 09:55 Cloudy with Mist and Fog 46 8 46 7.7 98 98 NNE 8 13 30.05 1018 2.5 4.02335 0 0
10:15 am 10:15 Cloudy with Light Rain 46 8 46 7.8 99 99 NNE 9 15 30.04 1017 3 4.82802 0 0
10:35 am 10:35 Cloudy 47 8.5 46 7.9 96 96 NNE 7 11 30.05 1017 10 16.0934 0 0
10:55 am 10:55 Cloudy 47 8.6 47 8.1 97 97 N 9 15 30.05 1018 10 16.0934 0 0
11:15 am 11:15 Cloudy 48 8.7 46 8 95 95 NNE 8 13 30.05 1018 10 16.0934 0 0
11:35 am 11:35 Cloudy 47 8.5 46 7.7 95 95 N 6 9 30.06 1018 7 11.26538 0 0
11:55 am 11:55 Cloudy with Mist and Fog 48 8.7 46 7.9 95 95 N 7 11 30.05 1018 5 8.0467 0 0
12:15 pm 12:15 Cloudy 48 9 46 7.9 93 93 N 9 15 30.07 1018 10 16.0934 0 0
12:35 pm 12:35 Cloudy with Mist and Fog 47 8.4 47 8.1 98 98 N 7 11 30.08 1018 2 3.21868 0 0
12:55 pm 12:55 Cloudy 48 8.8 46 7.9 94 94 NNW 7 11 30.06 1018 7 11.26538 0 0
1:15 pm 13:15 Cloudy 49 9.2 46 7.9 92 92 N 5 7 30.06 1018 10 16.0934 0 0
1:35 pm 13:35 Cloudy 49 9.4 46 7.7 89 89 NNW 5 7 30.05 1017 10 16.0934 0 0
1:55 pm 13:55 Cloudy 49 9.7 47 8.2 90 90 NNW 8 13 30.03 1017 10 16.0934 0 0
2:15 pm 14:15 Cloudy 49 9.7 47 8.2 90 90 NW 9 15 30.03 1017 10 16.0934 0 0
2:35 pm 14:35 Cloudy 51 10.4 47 8.5 88 88 NW 7 11 30.02 1017 10 16.0934 0 0
2:55 pm 14:55 Cloudy 52 11 47 8.4 84 84 NW 9 15 30.01 1016 10 16.0934 0 0
3:15 pm 15:15 Cloudy 52 11 47 8.5 85 85 NNW 12 19 30 1016 10 16.0934 0 0
3:35 pm 15:35 Cloudy 51 10.7 47 8.3 85 85 NW 9 15 30.02 1017 10 16.0934 0 0
3:55 pm 15:55 Cloudy 52 11 47 8.3 84 84 NW 9 15 30.01 1016 10 16.0934 0 0
4:15 pm 16:15 Cloudy 51 10.8 47 8.2 84 84 NNW 10 17 30.02 1017 10 16.0934 0 0
4:35 pm 16:35 Cloudy 51 10.7 47 8.2 85 85 NNW 8 13 30.02 1017 10 16.0934 0 0
4:55 pm 16:55 Cloudy 52 11 47 8.2 83 83 NNW 9 15 30.02 1017 10 16.0934 0 0
5:15 pm 17:15 Cloudy 52 11 47 8.1 82 82 NNW 9 15 30.03 1017 10 16.0934 0 0
5:35 pm 17:35 Cloudy 52 11 46 7.9 81 81 NW 12 19 30.03 1017 10 16.0934 0 0
5:55 pm 17:55 Cloudy 51 10.7 46 7.5 81 81 NNW 10 17 30.04 1017 10 16.0934 0 0
6:15 pm 18:15 Cloudy 51 10.6 46 7.9 84 84 NNW 8 13 30.06 1018 10 16.0934 0 0
6:35 pm 18:35 Cloudy 51 10.6 46 7.7 82 82 N 9 15 30.07 1018 10 16.0934 0 0
6:55 pm 18:55 Cloudy 51 10.5 46 7.7 83 83 N 6 9 30.07 1018 10 16.0934 0 0
7:15 pm 19:15 Cloudy 50 10.2 46 7.6 84 84 N 8 13 30.08 1019 10 16.0934 0 0
7:35 pm 19:35 Cloudy 50 10.1 46 7.7 85 85 N 8 13 30.09 1019 10 16.0934 0 0
7:55 pm 19:55 Cloudy 50 10.1 46 7.5 84 84 N 7 11 30.11 1020 10 16.0934 0 0
8:15 pm 20:15 Cloudy 50 10.1 45 7.2 82 82 N 8 13 30.12 1020 10 16.0934 0 0
8:35 pm 20:35 Cloudy 50 10.1 45 7 81 81 N 7 11 30.13 1020 10 16.0934 0 0
8:55 pm 20:55 Cloudy 50 10 45 7.2 83 83 NNW 6 9 30.14 1021 10 16.0934 0 0
9:15 pm 21:15 Mostly Cloudy 50 9.9 45 7.1 83 83 N 6 9 30.14 1021 10 16.0934 0 0
9:35 pm 21:35 Partly Cloudy 48 8.8 44 6.9 88 88 N 6 9 30.16 1021 10 16.0934 0 0
9:55 pm 21:55 Clear 46 8 44 6.6 91 91 N 6 9 30.18 1022 10 16.0934 0 0
10:15 pm 22:15 Clear 45 7.3 44 6.5 95 95 N 5 7 30.2 1023 10 16.0934 0 0
10:35 pm 22:35 Clear 44 6.9 43 6.1 95 95 N 6 9 30.2 1023 10 16.0934 0 0
10:55 pm 22:55 Clear 43 6.3 43 6 98 98 N 5 7 30.21 1023 10 16.0934 0 0
11:15 pm 23:15 Clear 43 6 42 5.7 98 98 NNW 5 7 30.22 1023 10 16.0934 0 0
11:35 pm 23:35 Clear 43 6 42 5.7 98 98 NNW 6 9 30.22 1023 10 16.0934 0 0
11:55 pm 23:55 Clear 42 5.5 42 5.3 99 99 NNW 3 6 30.22 1023 10 16.0934 0 0

Powered by AerisWeather